When you browse on this site, cookies collect data to enhance your experience and personalize the content and advertising you see.
Visit our Privacy Policy to learn more. By continuing to use the site, you agree to this use of cookies and data.
  • In Hungary
  • List of Countries
  • For 7 days
  • Water Temperature
  • Satellite Maps
  • Weather Map
  • News
  • Weather Widgets
  • user-avatar
    Login

    Hourly Weather Mariankowo

    Today, 20 January, Sunday

    Time Temperature Precipitation Wind Pressure Humidity
    00:00 -1°C° 0 mm 1 mps 758 mmHg 87%
    01:00 -4°C° 0 mm 2 mps 758 mmHg 86%
    02:00 -2°C° 0 mm 1 mps 758 mmHg 85%
    03:00 -2°C° 0 mm 1 mps 757 mmHg 85%
    04:00 -2°C° 0 mm 1 mps 757 mmHg 85%
    05:00 -2°C° 0 mm 1 mps 757 mmHg 85%
    06:00 -2°C° 0 mm 1 mps 757 mmHg 84%
    07:00 -3°C° 0 mm 0 mps 757 mmHg 84%
    08:00 -3°C° 0 mm 0 mps 757 mmHg 80%
    09:00 -2°C° 0 mm 0 mps 757 mmHg 77%
    10:00 -2°C° 0 mm 0 mps 757 mmHg 74%
    11:00 0°C° 0 mm 1 mps 757 mmHg 70%
    12:00 +1°C° 0 mm 1 mps 757 mmHg 66%
    13:00 +1°C° 0 mm 1 mps 757 mmHg 62%
    14:00 +1°C° 0 mm 1 mps 758 mmHg 66%
    15:00 0°C° 0 mm 1 mps 758 mmHg 70%
    16:00 0°C° 0 mm 1 mps 758 mmHg 73%
    17:00 -1°C° 0 mm 1 mps 758 mmHg 76%
    18:00 -1°C° 0 mm 1 mps 758 mmHg 78%
    19:00 -2°C° 0 mm 1 mps 758 mmHg 81%
    20:00 -2°C° 0 mm 1 mps 759 mmHg 82%
    21:00 -2°C° 0 mm 1 mps 759 mmHg 83%
    22:00 -2°C° 0 mm 1 mps 759 mmHg 84%
    23:00 -4°C° 0 mm 2 mps 759 mmHg 84%

    Tomorrow, 21 January, Monday

    Time Temperature Precipitation Wind Pressure Humidity
    00:00 -4°C° 0 mm 2 mps 760 mmHg 85%
    01:00 -4°C° 0 mm 2 mps 760 mmHg 86%
    02:00 -4°C° 0 mm 2 mps 760 mmHg 86%
    03:00 -4°C° 0 mm 2 mps 760 mmHg 86%
    04:00 -4°C° 0 mm 2 mps 760 mmHg 87%
    05:00 -4°C° 0 mm 2 mps 760 mmHg 87%
    06:00 -4°C° 0 mm 2 mps 760 mmHg 87%
    07:00 -4°C° 0 mm 2 mps 760 mmHg 87%
    08:00 -4°C° 0 mm 2 mps 760 mmHg 82%
    09:00 -5°C° 0 mm 3 mps 760 mmHg 78%
    10:00 -4°C° 0 mm 3 mps 760 mmHg 74%
    11:00 -2°C° 0 mm 3 mps 760 mmHg 70%
    12:00 -3°C° 0 mm 4 mps 759 mmHg 67%
    13:00 -2°C° 0 mm 4 mps 759 mmHg 63%
    14:00 -2°C° 0 mm 4 mps 759 mmHg 65%
    15:00 -3°C° 0 mm 4 mps 758 mmHg 68%
    16:00 -3°C° 0 mm 4 mps 758 mmHg 70%
    17:00 -4°C° 0 mm 4 mps 757 mmHg 69%
    18:00 -4°C° 0 mm 4 mps 757 mmHg 68%
    19:00 -4°C° 0 mm 4 mps 757 mmHg 68%
    20:00 -4°C° 0 mm 4 mps 757 mmHg 67%
    21:00 -4°C° 0 mm 4 mps 756 mmHg 67%
    22:00 -4°C° 0 mm 4 mps 756 mmHg 67%
    23:00 -4°C° 0 mm 3 mps 756 mmHg 69%

    Day after tomorrow, 22 January, Tuesday

    Time Temperature Precipitation Wind Pressure Humidity
    00:00 -5°C° 0 mm 3 mps 756 mmHg 72%
    01:00 -5°C° 0 mm 3 mps 755 mmHg 74%
    02:00 -5°C° 0 mm 3 mps 755 mmHg 76%
    03:00 -5°C° 0 mm 3 mps 755 mmHg 78%
    04:00 -4°C° 0 mm 2 mps 754 mmHg 80%
    05:00 -4°C° 0 mm 2 mps 754 mmHg 81%
    06:00 -5°C° 0 mm 2 mps 754 mmHg 81%
    07:00 -5°C° 0 mm 2 mps 753 mmHg 81%
    08:00 -4°C° 0 mm 2 mps 753 mmHg 77%
    09:00 -4°C° 0 mm 2 mps 753 mmHg 72%
    10:00 -4°C° 0 mm 3 mps 753 mmHg 68%
    11:00 -4°C° 0 mm 3 mps 752 mmHg 65%
    12:00 -2°C° 0 mm 3 mps 752 mmHg 62%
    13:00 -1°C° 0 mm 3 mps 751 mmHg 59%
    14:00 -2°C° 0 mm 3 mps 751 mmHg 63%
    15:00 -2°C° 0 mm 3 mps 750 mmHg 66%
    16:00 -4°C° 0 mm 3 mps 750 mmHg 70%
    17:00 -4°C° 0 mm 3 mps 750 mmHg 70%
    18:00 -4°C° 0 mm 3 mps 749 mmHg 71%
    19:00 -5°C° 0 mm 4 mps 749 mmHg 72%
    20:00 -5°C° 0 mm 4 mps 749 mmHg 70%
    21:00 -5°C° 0 mm 4 mps 749 mmHg 67%
    22:00 -5°C° 0 mm 4 mps 749 mmHg 65%
    23:00 -5°C° 0 mm 4 mps 749 mmHg 65%

    23 January, Wednesday

    Time Temperature Precipitation Wind Pressure Humidity
    00:00 -5°C° 0 mm 4 mps 749 mmHg 65%
    01:00 -5°C° 0 mm 4 mps 748 mmHg 65%
    02:00 -7°C° 0 mm 4 mps 748 mmHg 67%
    03:00 -7°C° 0 mm 4 mps 748 mmHg 69%
    04:00 -7°C° 0 mm 4 mps 748 mmHg 71%
    05:00 -7°C° 0 mm 4 mps 748 mmHg 72%
    06:00 -7°C° 0 mm 4 mps 748 mmHg 73%
    07:00 -7°C° 0 mm 4 mps 748 mmHg 74%
    08:00 -7°C° 0 mm 4 mps 748 mmHg 73%
    09:00 -5°C° 0 mm 4 mps 748 mmHg 72%
    10:00 -5°C° 0 mm 4 mps 748 mmHg 70%
    11:00 -4°C° 0 mm 4 mps 748 mmHg 69%
    12:00 -4°C° 0 mm 4 mps 748 mmHg 68%
    13:00 -3°C° 0 mm 4 mps 748 mmHg 67%
    14:00 -2°C° 0 mm 3 mps 748 mmHg 68%
    15:00 -2°C° 0 mm 3 mps 748 mmHg 68%
    16:00 -2°C° 0 mm 3 mps 748 mmHg 69%
    17:00 -4°C° 0 mm 3 mps 748 mmHg 70%
    18:00 -4°C° 0 mm 3 mps 748 mmHg 70%
    19:00 -4°C° 0 mm 3 mps 749 mmHg 71%
    20:00 -4°C° 0 mm 3 mps 749 mmHg 71%
    21:00 -4°C° 0 mm 3 mps 749 mmHg 72%
    22:00 -3°C° 0 mm 2 mps 749 mmHg 72%
    23:00 -3°C° 0 mm 2 mps 749 mmHg 73%

    24 January, Thursday

    Time Temperature Precipitation Wind Pressure Humidity
    00:00 -3°C° 0 mm 2 mps 749 mmHg 74%
    01:00 -3°C° 0 mm 2 mps 750 mmHg 75%
    02:00 -3°C° 0 mm 2 mps 750 mmHg 76%
    03:00 -1°C° 0 mm 1 mps 750 mmHg 77%
    04:00 -1°C° 0 mm 1 mps 750 mmHg 79%
    05:00 -1°C° 0 mm 1 mps 750 mmHg 80%
    06:00 -1°C° 0 mm 1 mps 750 mmHg 81%
    07:00 -2°C° 0 mm 0 mps 750 mmHg 81%
    08:00 -2°C° 0 mm 0 mps 750 mmHg 81%
    09:00 -2°C° 0 mm 0 mps 751 mmHg 80%
    10:00 -2°C° 0 mm 0 mps 751 mmHg 79%
    11:00 -1°C° 0 mm 0 mps 751 mmHg 77%
    12:00 -1°C° 0 mm 0 mps 751 mmHg 76%
    13:00 -1°C° 0 mm 0 mps 751 mmHg 74%
    14:00 -1°C° 0 mm 0 mps 751 mmHg 75%
    15:00 0°C° 0 mm 1 mps 752 mmHg 76%
    16:00 0°C° 0 mm 1 mps 752 mmHg 78%
    17:00 0°C° 0 mm 1 mps 752 mmHg 79%
    18:00 0°C° 0 mm 1 mps 753 mmHg 80%
    19:00 0°C° 0 mm 1 mps 753 mmHg 81%
    20:00 -1°C° 0 mm 1 mps 753 mmHg 81%
    21:00 -1°C° 0 mm 1 mps 754 mmHg 82%
    22:00 -1°C° 0 mm 1 mps 754 mmHg 83%
    23:00 -1°C° 0 mm 1 mps 754 mmHg 85%

    25 January, Friday

    Time Temperature Precipitation Wind Pressure Humidity
    00:00 -1°C° 0 mm 1 mps 754 mmHg 88%
    01:00 -2°C° 0 mm 1 mps 755 mmHg 90%
    02:00 -1°C° 0 mm 1 mps 755 mmHg 90%
    03:00 -1°C° 0 mm 1 mps 755 mmHg 90%
    04:00 -3°C° 0 mm 2 mps 755 mmHg 89%
    05:00 -3°C° 0 mm 2 mps 755 mmHg 89%
    06:00 -3°C° 0 mm 2 mps 756 mmHg 89%
    07:00 -3°C° 0 mm 2 mps 756 mmHg 89%
    08:00 -2°C° 0 mm 2 mps 757 mmHg 87%
    09:00 -2°C° 0 mm 2 mps 757 mmHg 85%
    10:00 -1°C° 0 mm 2 mps 758 mmHg 83%
    11:00 -1°C° 0 mm 2 mps 758 mmHg 80%
    12:00 +1°C° 0 mm 2 mps 758 mmHg 77%
    13:00 +1°C° 0 mm 2 mps 758 mmHg 73%
    14:00 -1°C° 0 mm 2 mps 758 mmHg 74%
    15:00 -1°C° 0 mm 2 mps 758 mmHg 75%
    16:00 -1°C° 0 mm 2 mps 759 mmHg 75%
    17:00 -2°C° 0 mm 2 mps 759 mmHg 75%
    18:00 -2°C° 0 mm 2 mps 759 mmHg 76%
    19:00 -2°C° 0 mm 2 mps 760 mmHg 76%
    20:00 -3°C° 0 mm 2 mps 760 mmHg 76%
    21:00 -3°C° 0 mm 2 mps 760 mmHg 77%
    22:00 -3°C° 0 mm 2 mps 760 mmHg 78%
    23:00 -3°C° 0 mm 2 mps 760 mmHg 80%
    Show more